Regional Weather Roundup
Issued by NWS Pendleton, OR

Home | Current Version | Previous Version | Text Only | Print | Product List | Glossary On
Versions: 1 2 3 4 5 6 7 8 9 10 11 12 13 14 15 16 17 18 19 20 21 22 23 24 25 26 27 28 29 30 31 32 33 34 35 36 37 38 39 40 41 42 43 44 45 46 47 48 49 50
000
ASUS46 KPDT 250225
RWRPDT
PENDLETON REGIONAL WEATHER ROUNDUP
NATIONAL WEATHER SERVICE PENDLETON OREGON
700 PM PDT SUN MAY 24 2015

NOTE: FAIR INDICATES FEW OR NO CLOUDS BELOW 12,000 FEET WITH NO
SIGNIFICANT WEATHER AND/OR OBSTRUCTIONS TO VISIBILITY.

# INDICATES UNOFFICIAL STATION AND DATA

WAZ520-250310-
EAST SLOPES OF WASHINGTON CASCADES

CITY            SKY/WX      TMP DP  RH  WIND    PRES   REMARKS
#BULLFROG 2SW   N/A         56  44  64  S2      27.56S
#BUMPING DAM    N/A         58  N/A N/A CALM    N/A
#CLE ELUM HS    N/A         59  47  64  SW7     29.89S
#CLE ELUM LAKE  N/A         56  46  69  NW2     29.85F
#CLIFFDEL 2NW   N/A         58  43  57  N6      N/A
#GLENWOOD       N/A         67  52  59  S7      29.81S
#MANASTASH CYN  N/A         62  38  41  NW1     29.88S
#NELSON         N/A         60  48  64  W1      29.89S
#NELSON 3SW     N/A         56  45  66  CALM    30.09S
#NILE           N/A         62  46  56  W7      29.13R
#RONALD 2NW     N/A         59  42  53  N2      29.82F
#SNOWDEN        N/A         56  37  49  CALM    N/A
#TEANAWAY 4NE   N/A         60  50  69  N9      N/A
#TROUT LAKE 1NE N/A         63  49  60  W15G24  29.84F
$$

WAZ521-250310-
SIMCOE HIGHLANDS

CITY            SKY/WX      TMP DP  RH  WIND    PRES   REMARKS
#CENTERVILLE 4W N/A         61  49  65  NW22    29.61F
#CENTERVILLE 1SWN/A         60  48  64  W15     29.80F
#GOLDENDALE     N/A         68  50  53  W12     N/A
#GOLDENDALE 1NE N/A         64  37  37  SW7     N/A
#GOLDENDALE 5WNWN/A         62  50  65  SW17    29.81F
#GOODNOE HILLS  N/A         66  50  56  W23     N/A
#LYLE 6NE       N/A         58  49  72  SW8     29.85F
$$

WAZ026-250310-
KITTITAS VALLEY

CITY            SKY/WX      TMP DP  RH  WIND    PRES   REMARKS
ELLENSBURG AP   MOCLDY      65  45  48  NW25G38 29.86R
YTC-OPS AREA    N/A         60  40  47  W36G46  29.83F
#ELLENSBURG CWU N/A         64  45  50  NW20    29.76R
#ELLENSBURG 3NE N/A         62  48  60  N9G26   29.87S
#KITTITAS 3S    N/A         63  47  56  NW12    29.78R
#THORP 6N       N/A         58  47  67  W21G36  29.86R
$$

WAZ027-250310-
YAKIMA VALLEY

CITY            SKY/WX      TMP DP  RH  WIND    PRES   REMARKS
SUNNYSIDE AP    CLOUDY      76  52  43  CALM    29.76F
YAKIMA AIRPORT  PTCLDY      76  46  34  NW21G26 29.80F
#DONALD 2NE     N/A         77  29  17  NW3     28.64F
#GRANDVIEW      N/A         78  44  30  CALM    29.74F
#MABTON         N/A         82  47  29  CALM    29.75F
#MOXEE 2E       N/A         74  31  20  S6      29.84F
#NACHES 2SW     N/A         67  46  47  W15G26  29.84F
#OUTLOOK DOT    N/A         N/A N/A N/A S1      N/A
#SELAH 8E       N/A         70  40  34  N12     N/A
#TERRACE HTS    N/A         75  47  37  N8      29.72S
#TOPPENISH      N/A         79  53  41  N6      29.66F
#WEST VALLEY    N/A         71  45  39  N8      29.74S
#WHITE SWAN 5E  N/A         78  54  43  CALM    29.75F
#WILEY CITY 3W  N/A         71  40  32  CALM    29.78F
$$

WAZ028-250310-
LOWER COLUMBIA BASIN...WASHINGTON

CITY            SKY/WX      TMP DP  RH  WIND    PRES   REMARKS
PASCO           CLOUDY      83  49  31  SW7     29.77F
RICHLAND AWOS   CLOUDY      82  50  33  S7      29.76F
#BASIN CITY 5SW N/A         73  58  59  CALM    29.76F
#BENTON CITY    N/A         78  50  38  SE5     29.65F
#CONNELL 5N     N/A         76  54  46  SW2     29.74F
#CONNELL 5NW    N/A         74  59  59  SW1     29.71F
#ELTOPIA 6NW    N/A         73  61  66  CALM    28.76F
#KAHLOTUS       N/A         77  48  36  SW8     29.75F
#KENNEWICK      N/A         56  44  64  S2      27.56S
#KENNEWICK 3S   N/A         79  53  41  S2      29.75F
#PASCO-BROADMOORN/A         83  50  32  S2      29.62F
#PATERSON       N/A         77  55  47  SW8     29.74F
#PROSSER        N/A         77  45  32  S6      29.73F
#SAGEMOOR 2W    N/A         79  59  50  CALM    29.60F
#TOUCHET 2S     N/A         75  66  74  CALM    29.72F
#WEST PASCO     N/A         84  56  38  S1      29.72F
$$

WAZ029-250310-
FOOTHILLS OF THE BLUES...WASHINGTON

CITY            SKY/WX      TMP DP  RH  WIND    PRES   REMARKS
WALLA WALLA AP  MOCLDY      77  49  37  SE7     29.81F
#DAYTON SCHOOL  N/A         74  47  38  E2      29.84F
#LOWDEN 2SE     N/A         80  57  45  E2      29.73F
#PRESCOTT       N/A         76  55  48  CALM    29.74F
#SUDBURY        N/A         76  N/A N/A CALM    N/A
#WHITMAN COLLEGEN/A         77  51  40  E3      29.81F
#WAITSBURG 8N   N/A         72  27  19  S1      29.65S
#WALLA WALLA U  N/A         78  53  42  CALM    29.76F
#WHITMAN MISSIONN/A         78  57  48  CALM    29.77F
$$

WAZ030-250310-
BLUE MOUNTAINS...WASHINGTON

CITY            SKY/WX      TMP DP  RH  WIND    PRES   REMARKS
#DIXIE 5SE      N/A         68  48  49  CALM    29.83F
$$

ORZ009-041-WAZ024-250310-
COLUMBIA RIVER GORGE

CITY            SKY/WX      TMP DP  RH  WIND    PRES   REMARKS
HOOD RIVER AP   PTCLDY      64  48  56  W5      29.94S
THE DALLES AP   PTCLDY      67  49  52  NW22G30 29.85F
#ARLINGTON AIRPON/A         68  49  51  W21     29.82S
#CELILO DOT     N/A         69  47  45  SW10    N/A
#MOSIER 1S      N/A         64  39  40  W3      29.88F
#MURDOCK        N/A         67  51  56  W24     29.88S
#RUFUS DOT      N/A         71  48  44  W26     N/A

$$

ORZ510-250310-
NORTH CENTRAL OREGON

CITY            SKY/WX      TMP DP  RH  WIND    PRES   REMARKS
#CHENOWITH 1W   N/A         60  47  62  W37     N/A
#COW CYN RST AREN/A         69  27  21  W8      N/A
#DUFUR 9E       N/A         61  46  58  W15     29.91F
#GRASS VALLEY 1SN/A         66  38  36  NW17G25 29.85F
#KENT DOT       N/A         68  30  24  NW14    N/A
#MAUPIN SCHOOL  N/A         72  46  39  W8      29.87R
#MORO SCHOOL    N/A         63  53  70  W12     29.88F
#SHANIKO 5WSW   N/A         68  25  20  W16     N/A
#SHANIKO 4NW    N/A         65  31  28  W14     29.93F
#TYGH VALLEY 2NEN/A         73  44  35  SW3     29.81S
#WAPANITIA AIRPON/A         66  43  43  W13     29.84F
#WASCO DOT      N/A         66  44  45  W14     N/A
#WASCO AIRPORT  N/A         66  46  48  W8      N/A
#WASCO 5NE      N/A         64  48  56  W12G28  29.82F
$$

ORZ511-250310-
CENTRAL OREGON

CITY            SKY/WX      TMP DP  RH  WIND    PRES   REMARKS
BEND AIRPORT    SUNNY       66  43  43  NW14    29.94S
MADRAS AIRPORT  SUNNY       70  34  26  N12     29.93S
PRINEVILLE AP   SUNNY       70  43  38  N13     29.92S
REDMOND AIRPORT SUNNY       70  48  46  W15     29.92S
#BEND 1SW       N/A         64  45  50  N3      N/A
#BEND-KIM LN    N/A         67  47  49  NW5     29.91F
#CROOKED RVR RANN/A         70  47  44  NE3     29.84S
#CULVER         N/A         69  42  37  NW7     29.87F
#LAKE BILLY CHINN/A         70   8   9  N13     29.97S
#POWELL BUTTE 3EN/A         70  45  41  NW9     N/A
#PRINEVILLE 3N  N/A         67  44  43  N9      29.79F
#WARM SPRINGS   N/A         72  35  26  SW10    29.86S

$$


ORZ509-250310-
EAST SLOPES OF OREGON CASCADES

CITY            SKY/WX      TMP DP  RH  WIND    PRES   REMARKS
#CAMP SHERMAN   N/A         64  46  52  S1      29.90R
#LA PINE 4NW    N/A         64  45  50  NW1     29.93S
#SISTERS AIRPOR N/A         65  51  60  N9      30.17S
#SISTERS ODOT   N/A         66  N/A N/A S8      N/A
#SISTERS 1NW    N/A         66  45  47  N15     N/A
#SISTERS 3N     N/A         64  45  50  W2      29.95S
#SUNRIVER       N/A         66  50  56  CALM    29.75F
#TUMALO 3W      N/A         64  46  52  N12     29.75S
#WANOGA BUTTE D N/A         59  32  36  NW3     N/A

$$

ORZ044-250310-
LOWER COLUMBIA BASIN...OREGON

CITY            SKY/WX      TMP DP  RH  WIND    PRES   REMARKS
HERMISTON       PTCLDY      81  46  29  W6      29.78F
#BOARDMAN SCHOOLN/A         78  52  40  SW9     29.78F
#ECHO 8SW       N/A         80  48  33  W6      29.79F
#IONE SCHOOL    N/A         74  49  41  SW12    29.79F
#IRRIGON 4NW    N/A         80  51  36  SW9     N/A
#UMATILLA SCHOOLN/A         81  61  51  W2      29.85S
#UMATILLA       N/A         81  54  39  CALM    29.69F
$$

ORZ507-250310-
NORTHERN FOOTHILLS OF THE BLUES

CITY            SKY/WX      TMP DP  RH  WIND    PRES   REMARKS
PENDLETON AIRPT PTCLDY      75  51  43  W7      29.81F
#ADAMS 3WNW     N/A         74  54  50  CALM    29.76F
#ATHENA         N/A         75  52  45  CALM    29.79F
#CAYUSE         N/A         77  51  40  CALM    29.76F
#HELIX SCHOOL   N/A         76  50  40  CALM    29.77F
#HELIX 3N       N/A         74  49  41  SW7     29.81F
#HOLDMAN 6E     N/A         77  48  36  NE6     29.59F
#M-F FERNDALE   N/A         77  55  47  CALM    29.79F
#M-F GROVE ELEM N/A         77  50  39  CALM    29.79F
#M-FREEWATER 5SEN/A         80  56  44  CALM    29.81F
#PENDLETON DNTN N/A         78  46  32  N2      29.78F
#PDT AQUATIC CTRN/A         79  49  35  NW2     29.83F
#PENDLETON 5NE  N/A         77  55  47  CALM    29.78F
#PDT SUNRIDGE   N/A         78  52  40  CALM    29.81F
#PENDLETON 7NW  N/A         77  55  47  CALM    29.64F
#PILOT ROCK     N/A         75  48  38  CALM    29.85F
#TUTUILLA       N/A         73  57  57  N1      29.79F
#UMAPINE 2E     N/A         77  62  60  E1      29.75F
#WESTON SCHOOL  N/A         74  47  38  N1      29.79F

$$

ORZ508-250310-
SOUTHERN FOOTHILLS OF THE BLUES

CITY            SKY/WX      TMP DP  RH  WIND    PRES   REMARKS
#AJAX           N/A         69  35  28  SW5     29.82F
#CONDON 5W      N/A         66  37  34  NW16    29.88F
#FOSSIL SCHOOL  N/A         71  45  39  NW7     29.86F
#HEPPNER EOC    N/A         72  46  39  W7      29.73F
#HEPPNER 4NE    N/A         68  45  44  NW8     29.80F
#LEXINGTON 2SE  N/A         73  52  48  NW3     29.82S
#RUGGS 5NE      N/A         71  43  36  W8      30.07S
#RUGGS 2SW      N/A         71  46  41  NW7     29.81F

$$

ORZ502-503-250310-
BLUE MOUNTAINS

CITY            SKY/WX      TMP DP  RH  WIND    PRES   REMARKS
MEACHAM         PTCLDY      67  46  47  CALM    29.92F
#BATTLE MTN DOT N/A         63  49  60  N2      N/A
#HEPPNER 15SE   N/A         62  47  58  CALM    29.84F
#LADD CYN SMT   N/A         67  40  37  NW8     N/A
#LONG CREEK HS  N/A         68  48  49  CALM    29.86F
#N POWDER DOT   N/A         68  46  45  N12     N/A
#PIKES PEAK     N/A         65  48  54  SW1     27.99S
#TOLLGATE       N/A         58  48  69  CALM    29.91F
#TROY SCHOOL    N/A         73  54  51  CALM    29.61S
#UKIAH          N/A         68  50  53  N7      29.84F
#WESTON 4E      N/A         67  50  54  SW1     29.75F
$$

ORZ505-250310-
JOHN DAY BASIN

CITY            SKY/WX      TMP DP  RH  WIND    PRES   REMARKS
JOHN DAY        PTCLDY      67  47  49  CALM    29.92S
#JOHN DAY KJDY  N/A         72  55  55  NW1     29.95R
#DAYVILLE SCHOOLN/A         75  40  28  N1      29.84S
#MITCHELL       N/A         67  56  68  CALM    30.04R
#MONUMENT HS    N/A         75  45  34  N7      29.85S
#MT. VERNON 5SE N/A         65  47  52  CALM    29.88S
$$

ORZ506-250310-
OCHOCO AND JOHN DAY HIGHLANDS

CITY            SKY/WX      TMP DP  RH  WIND    PRES   REMARKS
#BUCK CREEK DOT N/A         68  68  100 N12     N/A
#PAULINA SCHOOL N/A         71  40  32  N5      29.90S
#PINE MTN OBS   N/A         56  42  59  N7      N/A
#PRAIRIE CITY   N/A         69  46  44  CALM    29.75R
#SENECA         N/A         68  N/A N/A N1      N/A
#SENECA 9NW     N/A         62  41  46  CALM    29.79F
$$

ORZ049-250310-
GRANDE RONDE VALLEY

CITY            SKY/WX      TMP DP  RH  WIND    PRES   REMARKS
LA GRANDE       MOCLDY      70  45  41  N8      29.86F
#COVE           N/A         69  56  63  CALM    29.89S
#COVE SCHOOL    N/A         69  50  51  CALM    29.86S
#ELGIN 3N       N/A         71  46  41  NW2     29.85F
#ELGIN 1E       N/A         72  50  46  CALM    N/A
#ISLAND CITY 4N N/A         63  55  75  CALM    29.98F
#LADD CYN DOT   N/A         71  45  39  NW3     N/A
#LA GRANDE ELEM N/A         69  51  53  CALM    29.90S
#UNION 1S       N/A         70  54  57  W1      29.69S
$$

ORZ050-250310-
WALLOWA COUNTY

CITY            SKY/WX      TMP DP  RH  WIND    PRES   REMARKS
JOSEPH AIRPORT  N/A         64  45  50  N5      29.93S
#ENTERPRISE HS  N/A         67  47  49  NW5     29.91F
#IMNAHA SCHOOL  N/A         74  45  35  VRB2    29.82R
#IMNAHA 10S     N/A         69  47  45  CALM    29.85S
#JOSEPH 3N      N/A         64  44  48  NW5     29.94F
#JOSEPH 3W      N/A         57  47  69  SW1     29.80S
#LOSTINE        N/A         68  49  51  CALM    29.59S
#MT HOWARD 8000 N/A         46  39  76  NW6     30.07F
#PROMISE 1S     N/A         65  47  52  SW3     29.88F
#SHEEP RDG 7000 N/A         50  39  66  CALM    29.85F
#WALLOWA SCHOOL N/A         70  47  44  CALM    30.66F



$$



USA.gov is the U.S. government's official web portal to all federal, state and local government web resources and services.